Location: Christchurch
(43.5330°S, 172.6330°E)
Time: 23:54:26
(UTC+13:00)

Cosmos 2208 Rocket - Pass Details

Date: 24 January 2019
Orbit: 754 x 806 km, 74.0° (Epoch: 22 February)

Event Time Altitude Azimuth Distance (km) Brightness Sun altitude
Rises 21:55:41 0° 202° (SSW) 3,248 8.4 -8.7°
Reaches altitude 10° 21:58:04 10° 202° (SSW) 2,318 7.5 -9.0°
Maximum altitude 22:03:20 83° 288° (WNW) 782 4.1 -9.8°
Drops below altitude 10° 22:08:35 10° 15° (NNE) 2,312 6.0 -10.5°
Enters shadow 22:09:01 - 16° (NNE) 2,477 6.1 -10.6°
